weather.gov     
National Weather Service

Regional Weather Roundup
NWS Homepage
This page is being discontinued on March 12, 2014.
The same data is available at this site. Please update your bookmarks.
Thank you, and we apologize for the inconvenience.
Please send an email to SR-SRH.Webmaster@noaa.gov with any concerns.


Current Version
Previous Version:    01  02  03  04  05  06  07  08  09  10  11  12  13  14  15  16  17  18  19  20  21  22  23  24  25  26  27  28  29  30  
   31  32  33  34  35  36  37  38  39  40  41  42  43  44  45  46  47  48  49  50  51  52  53  54  55  56  57  58  59  60  
[Printable]
666
ASUS44 KOHX 011315
RWROHX
MIDDLE TENNESSEE HOURLY WEATHER ROUNDUP
NATIONAL WEATHER SERVICE NASHVILLE TN
700 AM CST SUN FEB 01 2015

NOTE: "FAIR" INDICATES FEW OR NO CLOUDS BELOW 12,000 FEET WITH
NO SIGNIFICANT WEATHER AND/OR OBSTRUCTIONS TO VISIBILITY.

* THESE REPORTS ARE NOT UNDER NWS QUALITY CONTROL AND MAY NOT
  REPORT WEATHER SUCH AS PRECIPITATION AND FOG.


TNZ005>011-023>034-057-059-062>066-078-080-011400
...NORTHERN MIDDLE TENNESSEE...

CITY           SKY/WX    TMP DP  RH WIND       PRES   REMARKS
CLARKSVILLE    CLOUDY    48  24  39 S12       29.95F
CROSSVILLE     CLOUDY    43  19  38 S9G16     30.09R
GALLATIN       CLOUDY    43  25  49 SE6       30.03F
DICKSON        CLOUDY    46  27  46 S12       29.97F
LEBANON        CLOUDY    48  21  34 S9        30.01F
LIVINGSTON     CLOUDY    47  22  37 S8        30.05F
NASHVILLE      CLOUDY    49  26  41 S16       30.02F
WEST NASHVILLE   N/A     48  21  34 S14       30.01F
PORTLAND       CLOUDY    45  19  36 S14       29.98F
SMYRNA         LGT RAIN  48  26  42 S9        30.04F
SPARTA         CLEAR     46  25  42 S6        30.05F
$$
TNZ056-058-060-061-075>077-079-093>097-011400
...SOUTHERN MIDDLE TENNESSEE...

CITY           SKY/WX    TMP DP  RH WIND       PRES   REMARKS
COLUMBIA       CLOUDY    48  27  43 S10       30.00S
LEWISBURG      CLOUDY    48  25  41 S13       30.03F
MCMINNVILLE    PTCLDY    48  27  43 S8        30.05F
MURFREESBORO   CLOUDY    49  24  37 S13       30.03F
SHELBYVILLE    MOCLDY    48  27  43 S12       30.06F
TULLAHOMA      PTCLDY    46  23  39 S12       30.06F
WINCHESTER     MOCLDY    46  27  46 S15       30.08F
$$


...KEY TO REMARKS...
VSB - VISIBILITY IN MILES
WCI - WIND CHILL INDEX
HX  - HEAT INDEX





U.S. Dept. of Commerce
NOAA National Weather Service
1325 East West Highway
Silver Spring, MD 20910
E-mail: w-nws.webmaster@noaa.gov
Page last modified: May 16, 2007
NATIONAL WEATHER SERVICE: for Safety, for Work, for Fun - FOR LIFE